Walhalla, ND

5:59 AM CST on January 23, 2017 (GMT -0600)
Walhalla

Weather History for K96D - March, 2013

Change the Weather History Date:

Wednesday, March 6, 2013

  Actual Average (KGAF) Record (KGAF)
Temperature  
Mean Temperature 12 °F -  
Max Temperature 19 °F 31 °F 57 °F (2016)
Min Temperature 1 °F 10 °F -25 °F (1955)
Degree Days  
Heating Degree Days 53    
Moisture  
Dew Point 14 °F    
Average Humidity 94    
Maximum Humidity 100    
Minimum Humidity 80    
Precipitation  
Precipitation 0.00 in - - ()
Sea Level Pressure  
Sea Level Pressure 30.38 in    
Wind  
Wind Speed 4 mph (ESE)    
Max Wind Speed 9 mph    
Max Gust Speed -    
Visibility 9 miles    
Events Snow    
Averages and records for this station are not official NWS values.
T = Trace of Precipitation, MM = Missing Value Source: NWS Daily Summary

Daily Weather History Graph

Daily Weather History Graph

Search for Another Location

Airport or City:

Trip Planner

Search our weather history database for the weather conditions in past years. The results will help you decide how hot, cold, wet, or windy it might be!

Date:

Astronomy

Mar. 06, 2013 Rise Set
Actual Time 7:02 AM CST 6:23 PM CST
Civil Twilight 6:31 AM CST 6:54 PM CST
Nautical Twilight 5:54 AM CST 7:31 PM CST
Astronomical Twilight 5:17 AM CST 8:08 PM CST
Moon 3:35 AM CST (3/6) 12:45 PM CST (3/6)
Length of Visible Light 12h 23m
Length of Day
11h 20m
Waning Crescent, 29% of the Moon is Illuminated
Mar 6
Waning Crescent
Mar 11
New
Mar 19
First Quarter
Mar 27
Full
Apr 2
Last Quarter

Hourly Weather History & Observations

Time (CST) Temp. Windchill Dew Point Humidity Pressure Visibility Wind Dir Wind Speed Gust Speed Precip Events Conditions
12:15 AM 15.8 °F 7.2 °F 15.8 °F 100% 30.41 in 10.0 mi NW 5.8 mph - N/A   Mostly Cloudy
12:35 AM 15.8 °F 6.1 °F 15.8 °F 100% 30.41 in 10.0 mi NW 6.9 mph - N/A   Overcast
12:55 AM 15.8 °F 6.1 °F 15.8 °F 100% 30.41 in 10.0 mi NW 6.9 mph - N/A   Overcast
1:15 AM 15.8 °F 8.6 °F 15.8 °F 100% 30.41 in 10.0 mi NW 4.6 mph - N/A   Overcast
1:35 AM 15.8 °F 7.2 °F 15.8 °F 100% 30.42 in 10.0 mi NW 5.8 mph - N/A   Overcast
1:55 AM 15.8 °F 8.6 °F 15.8 °F 100% 30.42 in 10.0 mi NW 4.6 mph - N/A Snow Light Snow
2:15 AM 15.8 °F 10.2 °F 15.8 °F 100% 30.42 in 10.0 mi NW 3.5 mph - N/A Snow Light Snow
2:35 AM 15.8 °F 8.6 °F 15.8 °F 100% 30.42 in 10.0 mi NNW 4.6 mph - N/A Snow Light Snow
2:55 AM 15.8 °F 8.6 °F 15.8 °F 100% 30.41 in 10.0 mi North 4.6 mph - N/A   Overcast
3:15 AM 15.8 °F 7.2 °F 15.8 °F 100% 30.41 in 10.0 mi NW 5.8 mph - N/A Snow Light Snow
3:35 AM 15.8 °F 8.6 °F 15.8 °F 100% 30.41 in 10.0 mi North 4.6 mph - N/A   Overcast
3:55 AM 15.8 °F 7.2 °F 15.8 °F 100% 30.41 in 10.0 mi NNW 5.8 mph - N/A   Overcast
4:15 AM 15.8 °F 8.6 °F 15.8 °F 100% 30.41 in 10.0 mi NNW 4.6 mph - N/A Snow Light Snow
4:35 AM 15.8 °F 10.2 °F 15.8 °F 100% 30.41 in 8.0 mi NNW 3.5 mph - N/A Snow Light Snow
4:55 AM 15.8 °F - 15.8 °F 100% 30.41 in 10.0 mi Calm Calm - N/A   Overcast
5:15 AM 15.8 °F 10.2 °F 15.8 °F 100% 30.42 in 10.0 mi NW 3.5 mph - N/A   Overcast
5:35 AM 15.8 °F 10.2 °F 15.8 °F 100% 30.42 in 10.0 mi NW 3.5 mph - N/A Snow Light Snow
5:55 AM 15.8 °F - 15.8 °F 100% 30.43 in 10.0 mi Calm Calm - N/A   Overcast
6:15 AM 15.8 °F - 15.8 °F 100% 30.44 in 10.0 mi Calm Calm - N/A   Overcast
6:35 AM 15.8 °F - 15.8 °F 100% 30.43 in 10.0 mi Calm Calm - N/A Snow Light Snow
6:55 AM 15.8 °F - 15.8 °F 100% 30.43 in 8.0 mi Calm Calm - N/A   Mostly Cloudy
7:15 AM 15.8 °F - 15.8 °F 100% 30.44 in 7.0 mi Calm Calm - N/A Snow Light Snow
7:35 AM 15.8 °F - 15.8 °F 100% 30.43 in 8.0 mi Calm Calm - N/A Snow Light Snow
7:55 AM 15.8 °F - 15.8 °F 100% 30.43 in 9.0 mi Calm Calm - N/A Snow Light Snow
8:15 AM 15.8 °F - 15.8 °F 100% 30.43 in 8.0 mi Calm Calm - N/A   Clear
8:35 AM 15.8 °F - 15.8 °F 100% 30.43 in 10.0 mi Calm Calm - N/A   Clear
8:55 AM 15.8 °F - 15.8 °F 100% 30.43 in 8.0 mi Calm Calm - N/A Snow Light Snow
9:15 AM 15.8 °F - 15.8 °F 100% 30.43 in 10.0 mi Calm Calm - N/A   Clear
9:35 AM 17.6 °F 12.3 °F 15.8 °F 93% 30.43 in 10.0 mi ENE 3.5 mph - N/A   Partly Cloudy
9:55 AM 17.6 °F - 15.8 °F 93% 30.43 in 7.0 mi Calm Calm - N/A Snow Light Snow
10:15 AM 17.6 °F - 15.8 °F 93% 30.43 in 4.0 mi Calm Calm - N/A Snow Light Snow
10:35 AM 17.6 °F 12.3 °F 15.8 °F 93% 30.43 in 4.0 mi SSE 3.5 mph - N/A Snow Light Snow
10:55 AM 17.6 °F - 14.0 °F 86% 30.43 in 3.0 mi Calm Calm - N/A Snow Light Snow
11:15 AM 17.6 °F 10.7 °F 14.0 °F 86% 30.43 in 4.0 mi ESE 4.6 mph - N/A Snow Light Snow
11:35 AM 17.6 °F 9.3 °F 14.0 °F 86% 30.42 in 6.0 mi East 5.8 mph - N/A Snow Light Snow
11:55 AM 17.6 °F 8.2 °F 14.0 °F 86% 30.41 in 9.0 mi ESE 6.9 mph - N/A   Clear
12:15 PM 17.6 °F 8.2 °F 14.0 °F 86% 30.40 in 10.0 mi East 6.9 mph - N/A   Clear
12:35 PM 17.6 °F 9.3 °F 14.0 °F 86% 30.39 in 10.0 mi ESE 5.8 mph - N/A   Scattered Clouds
12:55 PM 19.4 °F 11.5 °F 14.0 °F 80% 30.39 in 10.0 mi SE 5.8 mph - N/A   Scattered Clouds
1:15 PM 19.4 °F 10.4 °F 14.0 °F 80% 30.38 in 10.0 mi ESE 6.9 mph - N/A   Scattered Clouds
1:35 PM 19.4 °F 10.4 °F 14.0 °F 80% 30.36 in 10.0 mi ESE 6.9 mph - N/A   Mostly Cloudy
1:55 PM 19.4 °F 10.4 °F 14.0 °F 80% 30.36 in 10.0 mi ESE 6.9 mph - N/A   Overcast
2:15 PM 19.4 °F 10.4 °F 14.0 °F 80% 30.36 in 10.0 mi ESE 6.9 mph - N/A   Overcast
2:35 PM 19.4 °F 8.6 °F 14.0 °F 80% 30.35 in 10.0 mi ESE 9.2 mph - N/A   Overcast
2:55 PM 19.4 °F 11.5 °F 14.0 °F 80% 30.35 in 10.0 mi SSE 5.8 mph - N/A   Overcast
3:15 PM 19.4 °F 11.5 °F 14.0 °F 80% 30.35 in 10.0 mi South 5.8 mph - N/A   Overcast
3:35 PM 19.4 °F 10.4 °F 14.0 °F 80% 30.34 in 10.0 mi South 6.9 mph - N/A   Mostly Cloudy
3:55 PM 19.4 °F 11.5 °F 14.0 °F 80% 30.35 in 10.0 mi South 5.8 mph - N/A   Scattered Clouds
4:15 PM 17.6 °F 8.2 °F 14.0 °F 86% 30.34 in 10.0 mi SE 6.9 mph - N/A   Mostly Cloudy
4:35 PM 17.6 °F 8.2 °F 14.0 °F 86% 30.34 in 10.0 mi ESE 6.9 mph - N/A   Scattered Clouds
4:55 PM 17.6 °F 8.2 °F 14.0 °F 86% 30.34 in 10.0 mi ESE 6.9 mph - N/A   Overcast
5:15 PM 17.6 °F 7.3 °F 14.0 °F 86% 30.33 in 10.0 mi ESE 8.1 mph - N/A   Mostly Cloudy
5:35 PM 15.8 °F 6.1 °F 12.2 °F 86% 30.33 in 10.0 mi SE 6.9 mph - N/A   Partly Cloudy
5:55 PM 15.8 °F 8.6 °F 14.0 °F 93% 30.33 in 10.0 mi SSE 4.6 mph - N/A   Scattered Clouds
6:15 PM 15.8 °F 8.6 °F 14.0 °F 93% 30.33 in 10.0 mi South 4.6 mph - N/A   Scattered Clouds
6:35 PM 15.8 °F 7.2 °F 14.0 °F 93% 30.33 in 10.0 mi South 5.8 mph - N/A   Scattered Clouds
6:55 PM 14.0 °F 5.1 °F 12.2 °F 93% 30.33 in - South 5.8 mph - N/A   Mostly Cloudy
7:15 PM 15.8 °F 6.1 °F 14.0 °F 93% 30.33 in 10.0 mi South 6.9 mph - N/A   Overcast
7:35 PM 15.8 °F 7.2 °F 14.0 °F 93% 30.33 in 10.0 mi SSE 5.8 mph - N/A   Overcast
7:55 PM 12.2 °F 4.3 °F 10.4 °F 92% 30.33 in 10.0 mi ESE 4.6 mph - N/A   Scattered Clouds
8:35 PM 8.6 °F -1.3 °F 8.6 °F 100% 30.31 in 10.0 mi East 5.8 mph - N/A   Clear
8:55 PM 8.6 °F - 8.6 °F 100% 30.31 in 10.0 mi Calm Calm - N/A   Clear
9:15 PM 8.6 °F 2.0 °F 8.6 °F 100% 30.31 in 10.0 mi SE 3.5 mph - N/A   Clear
9:35 PM 8.6 °F 2.0 °F 8.6 °F 100% 30.31 in 10.0 mi ESE 3.5 mph - N/A   Clear
9:55 PM 6.8 °F -0.1 °F 6.8 °F 100% 30.30 in 10.0 mi East 3.5 mph - N/A   Clear
10:15 PM 6.8 °F -0.1 °F 6.8 °F 100% 30.30 in 10.0 mi ESE 3.5 mph - N/A   Clear
10:35 PM 6.8 °F -0.1 °F 6.8 °F 100% 30.30 in 10.0 mi SE 3.5 mph - N/A   Clear
10:55 PM 6.8 °F -0.1 °F 6.8 °F 100% 30.30 in 8.0 mi East 3.5 mph - N/A   Clear
11:15 PM 5.0 °F -2.1 °F 5.0 °F 100% 30.30 in 10.0 mi ESE 3.5 mph - N/A   Clear
11:35 PM 6.8 °F - 6.8 °F 100% 30.30 in 10.0 mi Calm Calm - N/A   Clear
11:55 PM 1.4 °F - 1.4 °F 100% 30.31 in 10.0 mi Calm Calm - N/A   Clear